[[{"header":{"parameterUnit":"m.s-1","parameterCategory":1,"la1":30.2991,"la2":30.254,"lo1":-89.0895,"lo2":-89.0444,"dy":0.0017,"dx":0.0017,"nx":28,"ny":28,"refTime":"2023-09-17T21:00:00:Z","depth":0,"parameterNumber":2,"parameterNumberName":"U-component_of_WINDS"},"data":[0,0,0,0,0,0,0,0,0,0,0,0,0,0,0,0,0,0,0,0,0,0,0,0,0,0,0,0,0,0,0,0,0,0,0,0,0,0,0,0,0,0,0,0,0,0,0,0,0,0,0,0,0,0,0,0,0,0,-0.626,-0.6259,0,-0.6238,-0.6238,-0.6238,-0.622,-0.622,-0.622,-0.6219,-0.6197,-0.6197,-0.6196,0,0,0,0,0,0,0,0,0,0,0,0,0,-0.6283,-0.6283,-0.626,-0.6259,-0.6259,-0.6238,-0.6238,-0.6238,-0.622,-0.622,-0.622,-0.6219,-0.6197,-0.6197,-0.6196,0,0,0,0,0,0,0,0,0,0,0,0,0,-0.6268,-0.6282,-0.626,-0.6248,-0.6246,-0.6239,-0.6238,-0.6238,-0.622,-0.622,-0.6219,-0.6219,-0.6197,-0.6197,-0.6196,-0.6198,0,0,-0.6194,-0.6194,0,0,0,0,0,0,0,0,-0.6269,-0.6268,-0.625,-0.6249,-0.6247,-0.6232,-0.6238,-0.6225,-0.622,-0.623,-0.6219,-0.6219,-0.6209,-0.6207,-0.6204,-0.6197,-0.6196,-0.6194,-0.6194,-0.6194,-0.6193,0,0,0,0,0,0,0,-0.627,-0.6268,-0.6251,-0.625,-0.6248,-0.6243,-0.624,-0.6236,-0.6221,-0.6229,-0.6228,-0.6226,-0.6208,-0.6205,-0.6203,-0.6196,-0.6194,-0.6194,-0.6193,-0.6193,-0.6188,-0.6188,0,0,0,0,0,0,-0.6273,-0.6269,-0.6252,-0.6251,-0.6258,-0.6243,-0.624,-0.6237,-0.6221,-0.6219,-0.6226,-0.6225,-0.6206,-0.6204,-0.6202,-0.6203,-0.6194,-0.6193,-0.6193,-0.6188,-0.6188,-0.6188,0,0,0,0,0,0,-0.6274,-0.6272,-0.6253,-0.626,-0.6257,-0.6243,-0.6239,-0.6237,-0.6233,-0.6219,-0.6216,-0.6225,-0.6205,-0.6203,-0.6199,-0.6202,-0.6193,-0.6192,-0.6188,-0.6188,-0.6188,-0.6204,0,0,0,0,0,0,-0.6275,-0.6272,-0.6273,-0.626,-0.6256,-0.6251,-0.6239,-0.6236,-0.6232,-0.6231,-0.6217,-0.6215,-0.6205,-0.62,-0.6198,-0.6201,-0.6192,-0.6187,-0.6188,-0.6188,-0.6203,-0.6205,-0.6207,0,0,0,0,0,-0.6275,-0.6279,-0.6274,-0.6272,-0.6258,-0.6251,-0.6249,-0.6238,-0.6233,-0.6233,-0.6224,-0.6215,-0.6202,-0.62,-0.6198,-0.62,-0.6187,-0.6188,-0.6188,-0.6203,-0.6205,-0.6207,0,0,0,0,0,0,-0.6294,-0.6277,-0.6271,-0.627,-0.6262,-0.6248,-0.6248,-0.624,-0.6233,-0.6232,-0.6218,-0.6215,-0.6213,-0.6206,-0.6204,-0.62,-0.6193,-0.6193,-0.6205,-0.6207,-0.6208,-0.621,-0.6191,0,0,0,0,0,-0.6297,-0.6294,-0.6279,-0.628,-0.6276,-0.6263,-0.6259,-0.6251,-0.6242,-0.6239,-0.6229,-0.622,-0.6214,-0.621,-0.6203,-0.6202,-0.6198,-0.6202,-0.6204,-0.6205,-0.6206,-0.6203,-0.6205,-0.619,-0.619,-0.619,0,0,-0.6306,-0.6296,-0.6295,-0.6283,-0.6276,-0.6272,-0.626,-0.6256,-0.6253,-0.6238,-0.6233,-0.6226,-0.6215,-0.6212,-0.621,-0.6206,-0.6209,-0.6206,-0.6207,-0.6207,-0.6204,-0.6205,-0.6207,-0.619,-0.619,-0.619,0,0,-0.6318,-0.6311,-0.631,-0.6303,-0.6292,-0.6282,-0.6282,-0.6269,-0.6263,-0.6258,-0.6247,-0.6242,-0.6231,-0.6224,-0.6218,-0.6226,-0.6217,-0.6224,-0.6232,-0.623,-0.6231,-0.6232,-0.6234,-0.6235,-0.6224,-0.6224,-0.6224,0,-0.6329,-0.6323,-0.6311,-0.6307,-0.6302,-0.6288,-0.6287,-0.628,-0.6267,-0.6264,-0.6259,-0.6245,-0.6237,-0.6231,-0.6233,-0.6229,-0.6228,-0.6226,-0.6232,-0.6233,-0.6234,-0.6235,-0.6236,-0.6225,-0.6225,-0.6225,-0.6225,0,-0.6337,-0.6332,-0.6333,-0.6321,-0.6316,-0.6313,-0.63,-0.6296,-0.6288,-0.6279,-0.6273,-0.6262,-0.6253,-0.6251,-0.6243,-0.6244,-0.6241,-0.6235,-0.6227,-0.6236,-0.6237,-0.6238,-0.6226,-0.6226,-0.6226,-0.6226,0,0,-0.6361,-0.6341,-0.6342,-0.6335,-0.6321,-0.6317,-0.6314,-0.6304,-0.6301,-0.6292,-0.6288,-0.6278,-0.6272,-0.6265,-0.6256,-0.6255,-0.626,-0.6248,-0.6247,-0.625,-0.6258,-0.6263,-0.6265,-0.6254,-0.6254,-0.6254,-0.6259,0,-0.6371,-0.6364,-0.6352,-0.6349,-0.6344,-0.633,-0.6326,-0.6317,-0.6308,-0.6302,-0.6292,-0.6285,-0.6277,-0.6273,-0.6271,-0.626,-0.6261,-0.6259,-0.6249,-0.6249,-0.6253,-0.6265,-0.6271,-0.6276,-0.626,-0.626,-0.626,0,-0.6382,-0.6374,-0.637,-0.6355,-0.6352,-0.635,-0.6339,-0.6334,-0.6322,-0.6316,-0.6308,-0.6298,-0.6292,-0.6285,-0.6276,-0.6275,-0.627,-0.6264,-0.6264,-0.6262,-0.6255,-0.6264,-0.6278,-0.6279,-0.6261,-0.6261,-0.626,0,-0.6399,-0.6387,-0.6383,-0.6378,-0.6361,-0.6359,-0.6352,-0.634,-0.6334,-0.6325,-0.6321,-0.6311,-0.6305,-0.6297,-0.6284,-0.628,-0.6276,-0.6268,-0.627,-0.627,-0.627,-0.627,-0.6283,-0.6267,-0.6267,-0.6267,-0.6267,0,-0.6412,-0.641,-0.639,-0.6388,-0.6385,-0.637,-0.6367,-0.6359,-0.6348,-0.6342,-0.6329,-0.6325,-0.6308,-0.63,-0.629,-0.6284,-0.6281,-0.6275,-0.6273,-0.6277,-0.6277,-0.6273,-0.6272,-0.6267,-0.6267,-0.6267,-0.6267,0,-0.6431,-0.6418,-0.6412,-0.6396,-0.6392,-0.639,-0.6376,-0.6372,-0.6362,-0.6355,-0.6353,-0.6337,-0.6327,-0.6313,-0.63,-0.6293,-0.6288,-0.6283,-0.6292,-0.629,-0.6292,-0.6292,-0.6303,-0.6303,-0.6287,-0.6288,-0.6288,0,-0.644,-0.6438,-0.6421,-0.6416,-0.6409,-0.6402,-0.6397,-0.6382,-0.6376,-0.6362,-0.6359,-0.6349,-0.634,-0.6326,-0.6312,-0.6301,-0.6297,-0.6301,-0.6295,-0.6298,-0.6296,-0.6296,-0.6295,-0.6303,-0.6303,-0.6303,-0.6303,0,-0.6456,-0.6449,-0.6442,-0.6431,-0.6425,-0.6416,-0.6406,-0.6403,-0.6386,-0.638,-0.637,-0.6363,-0.6349,-0.6338,-0.6325,-0.6317,-0.6307,-0.6305,-0.6305,-0.6309,-0.6313,-0.631,-0.6295,-0.6305,-0.6305,-0.6305,-0.6305,-0.6305,-0.647,-0.6467,-0.6454,-0.6446,-0.6437,-0.6428,-0.6423,-0.6412,-0.6404,-0.6391,-0.6383,-0.6373,-0.636,-0.6341,-0.6333,-0.6325,-0.6321,-0.632,-0.632,-0.632,-0.6321,-0.6315,-0.6322,-0.6322,-0.6322,-0.6322,-0.6322,0,-0.6485,-0.6476,-0.6468,-0.6455,-0.6448,-0.6439,-0.6427,-0.6422,-0.6414,-0.6402,-0.6393,-0.6381,-0.6371,-0.6356,-0.6344,-0.634,-0.6335,-0.6337,-0.6337,-0.6335,-0.6326,-0.6327,-0.6341,-0.6341,-0.6341,-0.6341,-0.6341,-0.6341,-0.6492,-0.6487,-0.6478,-0.6468,-0.6458,-0.6449,-0.6443,-0.6434,-0.6425,-0.6412,-0.6403,-0.6393,-0.638,-0.6367,-0.6356,-0.6352,-0.6348,-0.6351,-0.6346,-0.6338,-0.6336,-0.6334,-0.6335,-0.6351,-0.6351,-0.6355,-0.6355,-0.6355]},{"header":{"parameterUnit":"m.s-1","parameterCategory":1,"la1":30.2991,"la2":30.254,"lo1":-89.0895,"lo2":-89.0444,"dy":0.0017,"dx":0.0017,"nx":28,"ny":28,"refTime":"2023-09-17T21:00:00:Z","depth":0,"parameterNumber":3,"parameterNumberName":"V-component_of_WINDS"},"data":[0,0,0,0,0,0,0,0,0,0,0,0,0,0,0,0,0,0,0,0,0,0,0,0,0,0,0,0,0,0,0,0,0,0,0,0,0,0,0,0,0,0,0,0,0,0,0,0,0,0,0,0,0,0,0,0,0,0,-3.0278,-3.028,0,-3.0391,-3.0392,-3.0393,-3.0442,-3.0442,-3.0442,-3.0442,-3.0554,-3.0557,-3.056,0,0,0,0,0,0,0,0,0,0,0,0,0,-3.0104,-3.0107,-3.0278,-3.028,-3.0281,-3.039,-3.0392,-3.0393,-3.0442,-3.0442,-3.0442,-3.0441,-3.0553,-3.0557,-3.0561,0,0,0,0,0,0,0,0,0,0,0,0,0,-3.0194,-3.0108,-3.0278,-3.0319,-3.0323,-3.039,-3.0392,-3.0394,-3.0442,-3.0442,-3.0442,-3.0441,-3.0552,-3.0556,-3.0561,-3.0595,0,0,-3.0575,-3.0578,0,0,0,0,0,0,0,0,-3.0189,-3.0201,-3.0311,-3.0316,-3.0321,-3.0402,-3.0372,-3.0461,-3.0442,-3.0397,-3.0442,-3.0441,-3.0504,-3.0512,-3.0534,-3.06,-3.0605,-3.0576,-3.0579,-3.0581,-3.0582,0,0,0,0,0,0,0,-3.0183,-3.0196,-3.0323,-3.0313,-3.0319,-3.0331,-3.0343,-3.0389,-3.045,-3.0401,-3.0405,-3.0417,-3.0506,-3.0529,-3.0537,-3.0607,-3.0576,-3.058,-3.0583,-3.0585,-3.0708,-3.0709,0,0,0,0,0,0,-3.017,-3.0191,-3.0319,-3.0326,-3.0253,-3.0334,-3.0348,-3.0376,-3.045,-3.0461,-3.0418,-3.0419,-3.0521,-3.0531,-3.0541,-3.0586,-3.0581,-3.0585,-3.0588,-3.0708,-3.0709,-3.0709,0,0,0,0,0,0,-3.0166,-3.0181,-3.0315,-3.026,-3.0277,-3.0337,-3.0369,-3.0379,-3.0402,-3.0462,-3.0473,-3.043,-3.0521,-3.0534,-3.0582,-3.0591,-3.0587,-3.0592,-3.0707,-3.0708,-3.0709,-3.0677,0,0,0,0,0,0,-3.0161,-3.018,-3.0193,-3.0259,-3.028,-3.0354,-3.0369,-3.0381,-3.041,-3.0413,-3.0477,-3.0487,-3.0522,-3.0574,-3.0586,-3.0597,-3.0595,-3.0707,-3.0708,-3.0709,-3.0677,-3.0676,-3.0676,0,0,0,0,0,-3.0155,-3.0179,-3.0194,-3.0209,-3.0299,-3.0354,-3.0366,-3.0406,-3.041,-3.0425,-3.0464,-3.0485,-3.0588,-3.0579,-3.0593,-3.0605,-3.0706,-3.0708,-3.0709,-3.0678,-3.0677,-3.0676,0,0,0,0,0,0,-3.0111,-3.0188,-3.0206,-3.0252,-3.0296,-3.0362,-3.0381,-3.0404,-3.0447,-3.0448,-3.0496,-3.051,-3.0553,-3.0584,-3.0573,-3.0643,-3.0649,-3.0653,-3.0621,-3.062,-3.0619,-3.0611,-3.0599,0,0,0,0,0,-3.0107,-3.0147,-3.0212,-3.0246,-3.0268,-3.0321,-3.0346,-3.0374,-3.0421,-3.044,-3.0483,-3.0527,-3.057,-3.0597,-3.0639,-3.0682,-3.0697,-3.0698,-3.0697,-3.0696,-3.0699,-3.0725,-3.0726,-3.0712,-3.0712,-3.0712,0,0,-3.0099,-3.0146,-3.0168,-3.0239,-3.0276,-3.0316,-3.0336,-3.0376,-3.0406,-3.0446,-3.0494,-3.0527,-3.058,-3.0625,-3.0648,-3.0652,-3.0706,-3.0697,-3.0696,-3.0699,-3.0726,-3.0727,-3.0728,-3.0713,-3.0713,-3.0713,0,0,-3.0104,-3.0144,-3.0177,-3.0215,-3.0272,-3.0307,-3.0315,-3.0379,-3.0402,-3.0451,-3.0483,-3.0518,-3.059,-3.0627,-3.0655,-3.0676,-3.0697,-3.0689,-3.0684,-3.0708,-3.071,-3.0711,-3.0718,-3.0721,-3.0691,-3.0691,-3.0691,0,-3.0086,-3.0147,-3.0192,-3.0231,-3.0261,-3.0301,-3.0335,-3.0369,-3.0437,-3.0457,-3.0462,-3.0554,-3.0592,-3.0648,-3.0653,-3.0674,-3.0685,-3.0681,-3.0706,-3.0708,-3.0709,-3.0717,-3.072,-3.069,-3.069,-3.069,-3.069,0,-3.0123,-3.0165,-3.0185,-3.0251,-3.0284,-3.032,-3.037,-3.0398,-3.0423,-3.0457,-3.0507,-3.0555,-3.0608,-3.0624,-3.0648,-3.0683,-3.0684,-3.0697,-3.0704,-3.0708,-3.0717,-3.072,-3.0688,-3.0688,-3.0689,-3.0689,0,0,-3.0103,-3.0194,-3.02,-3.0231,-3.0298,-3.033,-3.0369,-3.0422,-3.0445,-3.0491,-3.0525,-3.0586,-3.0598,-3.063,-3.0659,-3.0681,-3.0695,-3.0691,-3.0693,-3.069,-3.0737,-3.0727,-3.073,-3.071,-3.0711,-3.0711,-3.0733,0,-3.0117,-3.0189,-3.023,-3.0284,-3.0324,-3.0363,-3.0396,-3.044,-3.0474,-3.0512,-3.055,-3.0592,-3.0605,-3.0625,-3.0649,-3.0688,-3.0705,-3.0688,-3.0742,-3.0743,-3.0727,-3.0734,-3.0724,-3.0741,-3.0736,-3.0737,-3.0737,0,-3.0143,-3.0189,-3.0248,-3.0311,-3.0329,-3.0358,-3.0411,-3.0447,-3.0498,-3.0522,-3.0558,-3.0588,-3.063,-3.0634,-3.0694,-3.0681,-3.0705,-3.0729,-3.073,-3.0736,-3.074,-3.0741,-3.0748,-3.0751,-3.0743,-3.0742,-3.0742,0,-3.0123,-3.02,-3.0245,-3.027,-3.0344,-3.0364,-3.0396,-3.0447,-3.0477,-3.0523,-3.0543,-3.0593,-3.062,-3.0658,-3.0701,-3.07,-3.0756,-3.0764,-3.0776,-3.0775,-3.0786,-3.0784,-3.0797,-3.0802,-3.0802,-3.0802,-3.0802,0,-3.0135,-3.0169,-3.0237,-3.0265,-3.0304,-3.0352,-3.039,-3.0425,-3.047,-3.0505,-3.0541,-3.0573,-3.0628,-3.0667,-3.07,-3.0744,-3.0756,-3.0776,-3.0785,-3.0773,-3.077,-3.0789,-3.0789,-3.0802,-3.0802,-3.0802,-3.0802,0,-3.0119,-3.0166,-3.0218,-3.0284,-3.0302,-3.0328,-3.0385,-3.0414,-3.045,-3.0494,-3.0507,-3.0564,-3.0612,-3.0658,-3.0722,-3.0744,-3.0788,-3.08,-3.0771,-3.0776,-3.0786,-3.0784,-3.0811,-3.0817,-3.0817,-3.0817,-3.0817,0,-3.0123,-3.0151,-3.0221,-3.0247,-3.0279,-3.0321,-3.0352,-3.04,-3.043,-3.0491,-3.0512,-3.0563,-3.0606,-3.0681,-3.0728,-3.0777,-3.079,-3.0796,-3.0797,-3.0785,-3.079,-3.0788,-3.0791,-3.0794,-3.0794,-3.0794,-3.0794,0,-3.0126,-3.0148,-3.0191,-3.0243,-3.0279,-3.0322,-3.0366,-3.0386,-3.0442,-3.0475,-3.0525,-3.0558,-3.0624,-3.0674,-3.0729,-3.0762,-3.0787,-3.0793,-3.0799,-3.0787,-3.0769,-3.0779,-3.0768,-3.0792,-3.0792,-3.0792,-3.0792,-3.0792,-3.012,-3.0147,-3.0201,-3.0248,-3.0287,-3.0327,-3.0358,-3.0398,-3.0441,-3.0498,-3.0524,-3.0574,-3.0626,-3.0703,-3.0735,-3.0776,-3.0782,-3.0789,-3.0792,-3.0793,-3.079,-3.0763,-3.0786,-3.0786,-3.0786,-3.0786,-3.0786,0,-3.0125,-3.0162,-3.0205,-3.0266,-3.0304,-3.0325,-3.0375,-3.0405,-3.0449,-3.0495,-3.0537,-3.0595,-3.0644,-3.0695,-3.0747,-3.077,-3.0783,-3.0782,-3.078,-3.0788,-3.0782,-3.0772,-3.077,-3.077,-3.077,-3.077,-3.077,-3.077,-3.0132,-3.0178,-3.0207,-3.0273,-3.031,-3.0359,-3.0386,-3.0424,-3.0462,-3.0524,-3.0565,-3.0599,-3.0647,-3.0703,-3.075,-3.0763,-3.0781,-3.0777,-3.0794,-3.0787,-3.0788,-3.0789,-3.078,-3.078,-3.078,-3.0796,-3.0797,-3.0797]}]]